Weather History for Toledo, OH

Change the Weather History Date:

Sunday, January 20, 2013

  Actual Average Record
Temperature  
Mean Temperature 31 °F 25 °F  
Max Temperature 43 °F 32 °F 67 °F (1906)
Min Temperature 18 °F 18 °F -17 °F (1985)
Degree Days  
Heating Degree Days 34 40  
Month to date heating degree days 690 791  
Since 1 July heating degree days 2941 3116  
Cooling Degree Days 0 0  
Month to date cooling degree days 0 0  
Year to date cooling degree days 0 0  
Moisture  
Dew Point 10 °F    
Average Humidity 57    
Maximum Humidity 70    
Minimum Humidity 43    
Precipitation  
Precipitation T in 0.06 in 0.47 in (1974)
Month to date precipitation 2.77 1.38  
Year to date precipitation 2.77 1.38  
Snow  
Snow T in 0.40 in - ()
Month to date snowfall T 7.3  
Since 1 July snowfall 7.0 16.8  
Snow Depth 0.00 in    
Sea Level Pressure  
Sea Level Pressure 30.07 in    
Wind  
Wind Speed 18 mph (West)    
Max Wind Speed 44 mph    
Max Gust Speed 56 mph    
Visibility 10 miles    
Events Snow    
T = Trace of Precipitation, MM = Missing Value Source: NWS Daily Summary

Daily Weather History Graph

Daily Weather History Graph

Search for Another Location

Airport:

Trip Planner

Search our weather history database for the weather conditions in past years. The results will help you decide how hot, cold, wet, or windy it might be!

Date:

Astronomy

Jan. 20, 2013 Rise Set
Actual Time 7:56 AM EST 5:36 PM EST
Civil Twilight 7:26 AM EST 6:06 PM EST
Nautical Twilight 6:52 AM EST 6:40 PM EST
Astronomical Twilight 6:19 AM EST 7:13 PM EST
Moon 12:37 PM EST (1/20) 2:27 AM EST (1/20)
Length of Visible Light 10h 40m
Length of Day
9h 39m
Waxing Gibbous, 66% of the Moon is Illuminated
Jan 20
Waxing Gibbous
Jan 26
Full
Feb 3
Last Quarter
Feb 10
New
Feb 17
First Quarter

Hourly Weather History & Observations

Time (EST) Temp. Windchill Dew Point Humidity Pressure Visibility Wind Dir Wind Speed Gust Speed Precip Events Conditions
12:52 AM 42.1 °F 31.7 °F 32.0 °F 67% 29.68 in 10.0 mi WSW 27.6 mph 35.7 mph N/A   Clear
1:52 AM 41.0 °F 29.3 °F 25.0 °F 53% 29.69 in 10.0 mi West 33.4 mph 51.8 mph N/A   Partly Cloudy
2:52 AM 37.9 °F 25.9 °F 18.0 °F 45% 29.74 in 10.0 mi West 28.8 mph 41.4 mph N/A   Clear
3:52 AM 32.0 °F 19.2 °F 12.9 °F 45% 29.83 in 10.0 mi WNW 23.0 mph 39.1 mph N/A   Clear
4:52 AM 27.0 °F 10.8 °F 10.0 °F 49% 29.90 in 10.0 mi West 29.9 mph 46.0 mph N/A   Partly Cloudy
5:52 AM 25.0 °F 9.9 °F 12.0 °F 58% 29.95 in 10.0 mi WNW 23.0 mph 35.7 mph 0.00 in Snow Light Snow
6:52 AM 21.9 °F 5.8 °F 8.1 °F 55% 30.01 in 10.0 mi WNW 23.0 mph 35.7 mph 0.00 in   Overcast
7:52 AM 21.0 °F 6.2 °F 9.0 °F 60% 30.06 in 9.0 mi WNW 18.4 mph 27.6 mph 0.00 in Snow Light Snow
8:02 AM 19.4 °F 2.8 °F 6.8 °F 58% 30.05 in 9.0 mi WNW 21.9 mph 32.2 mph 0.00 in   Mostly Cloudy
8:52 AM 19.9 °F 3.5 °F 6.1 °F 55% 30.11 in 10.0 mi WNW 21.9 mph 28.8 mph 0.00 in   Mostly Cloudy
9:52 AM 19.9 °F 5.7 °F 5.0 °F 52% 30.16 in 10.0 mi WNW 16.1 mph 27.6 mph N/A   Mostly Cloudy
10:52 AM 21.9 °F 6.9 °F 5.0 °F 48% 30.19 in 10.0 mi WNW 19.6 mph 25.3 mph N/A   Mostly Cloudy
11:52 AM 21.9 °F 9.2 °F 6.1 °F 51% 30.19 in 10.0 mi WNW 13.8 mph 20.7 mph N/A   Overcast
12:52 PM 21.9 °F 8.7 °F 7.0 °F 53% 30.18 in 10.0 mi West 15.0 mph - N/A   Mostly Cloudy
1:52 PM 24.1 °F 12.0 °F 7.0 °F 48% 30.16 in 10.0 mi WNW 13.8 mph - N/A   Mostly Cloudy
2:52 PM 23.0 °F 10.6 °F 7.0 °F 50% 30.18 in 10.0 mi West 13.8 mph 24.2 mph N/A   Overcast
3:52 PM 23.0 °F 9.6 °F 8.1 °F 53% 30.19 in 10.0 mi West 16.1 mph - N/A   Overcast
4:52 PM 21.0 °F 8.6 °F 7.0 °F 55% 30.20 in 10.0 mi West 12.7 mph - N/A   Mostly Cloudy
5:52 PM 21.0 °F 8.6 °F 8.1 °F 57% 30.22 in 10.0 mi WNW 12.7 mph - N/A   Overcast
6:52 PM 19.9 °F 7.3 °F 7.0 °F 57% 30.22 in 10.0 mi West 12.7 mph - N/A   Overcast
7:52 PM 19.9 °F 9.3 °F 6.1 °F 55% 30.23 in 10.0 mi West 9.2 mph 19.6 mph N/A   Overcast
8:52 PM 19.0 °F 6.1 °F 5.0 °F 54% 30.22 in 10.0 mi West 12.7 mph - N/A   Overcast
9:52 PM 19.0 °F 6.1 °F 7.0 °F 59% 30.22 in 9.0 mi West 12.7 mph - 0.00 in   Overcast
10:52 PM 18.0 °F 6.9 °F 3.9 °F 54% 30.21 in 10.0 mi WNW 9.2 mph - N/A   Mostly Cloudy
11:52 PM 18.0 °F 7.7 °F 3.9 °F 54% 30.19 in 10.0 mi WNW 8.1 mph - N/A   Overcast